FREGAT DEB

Last updated on Sun Sep 20 2026 00:02:05 GMT+0000 (Coordinated Universal Time)

1 49271U 11037PF 26262.19552305 .00010835 00000+0 15154-1 0 9996 2 49271 51.6468 78.6970 0944064 131.6853 236.8792 12.44551487236746
UTC large
Height (km)
Speed (km/s)
/
Latitude / Longitude
Inclination (degrees)
Orbital Period (minutes)
Azimuth
Elevation
Range (km)
Doppler Factor

Next 0 passes for location: London (51.5072 / 0.1276)

No passes found over London.
FREGAT DEB